Home   Weather   Yuba City   Past weeks
Flag for USA

Past Weather in Yuba City, California, USA — Yesterday and Last 2 Weeks

Now
80 °F

Sunny.


Feels Like: 80 °F
Forecast: 86 / 59 °F
Wind: 8 mph from South

Location: Yuba County Airport

Current Time: Aug 18, 2019 at 12:38:52 pm

Latest Report: Aug 18, 2019 at 11:53 am


Visibility: 10 mi

Pressure: 29.86 "Hg

Humidity: 44%

Dew Point: 56 °F

Location of Yuba CityLocation

Past Weather in Yuba City — Graph

°F

Yuba City Temperature Yesterday

Maximum temperature yesterday: 93 °F (at 3:53 pm)
Minimum temperature yesterday: 67 °F (at 5:53 am)
Average temperature yesterday: 78 °F

High & Low Weather Summary for the Past Weeks

 TemperatureHumidityPressure
High105 °F (Aug 15, 2:53 pm)90% (Aug 10, 6:53 am)30.06 "Hg (Aug 10, 6:53 am)
Low59 °F (Aug 11, 5:53 am)15% (Aug 16, 5:53 pm)29.69 "Hg (Aug 17, 6:53 pm)
Average79 °F49%29.88 "Hg
* Reported Aug 3 10:53 am — Aug 18 10:53 am, Yuba City. Weather by CustomWeather, © 2019

Note: Actual official high and low records may vary slightly from our data, if they occured in-between our weather recording intervals... More about our weather records

Advertising

Yuba City Weather History for the Previous 24 Hours

Scroll right to see more
 ConditionsComfort  
Time TempWeatherWind HumidityBarometerVisibility
10:53 am
Sun, Aug 18
75 °FSunny.6 mph50%29.86 "Hg10 mi
9:53 am71 °FSunny.7 mph57%29.85 "Hg10 mi
8:53 am66 °FSunny.9 mph68%29.84 "Hg10 mi
7:53 am63 °FSunny.9 mph73%29.83 "Hg10 mi
6:53 am60 °FSunny.8 mph80%29.81 "Hg10 mi
5:53 am60 °FClear.7 mph78%29.80 "Hg10 mi
4:53 am61 °FClear.7 mph75%29.78 "Hg10 mi
3:53 am62 °FClear.8 mph73%29.78 "Hg10 mi
2:53 am63 °FClear.8 mph70%29.77 "Hg10 mi
1:53 am65 °FClear.10 mph63%29.76 "Hg10 mi
12:53 am66 °FClear.12 mph61%29.75 "Hg10 mi
11:53 pm
Sat, Aug 17
67 °FClear.13 mph63%29.75 "Hg10 mi
10:53 pm69 °FClear.10 mph59%29.74 "Hg10 mi
9:53 pm70 °FClear.9 mph61%29.74 "Hg10 mi
8:53 pm74 °FClear.10 mph56%29.71 "Hg10 mi
7:53 pm79 °FSunny.9 mph47%29.70 "Hg10 mi
6:53 pm86 °FSunny.10 mph39%29.69 "Hg10 mi
5:53 pm91 °FSunny.13 mph30%29.70 "Hg10 mi
4:53 pm92 °FSunny.10 mph29%29.71 "Hg10 mi
3:53 pm93 °FSunny.9 mph29%29.72 "Hg10 mi
2:53 pm91 °FSunny.6 mph33%29.74 "Hg10 mi
1:53 pm90 °FSunny.12 mph35%29.76 "Hg10 mi
12:53 pm88 °FSunny.7 mph39%29.78 "Hg10 mi
Weather by CustomWeather, © 2019

See weather overview